This is the latest recevied weather packets stored in our database for station/object KF4UQS-14. If no packets are shown the sender has not sent any weather packets the latest 10 day(s).
| Time | Temp. | Humidity | Pressure | Rain* | Wind** | Luminosity | Snow |
|---|---|---|---|---|---|---|---|
| 1777576816 | 20° C | 58% | 1009.3 hPa | 0 mm | - | 230 W/m² | - |
| 1777576516 | 20° C | 58% | 1009.5 hPa | 0 mm | - | 161 W/m² | - |
| 1777576212 | 20° C | 58% | 1009.4 hPa | 0 mm | - | 134 W/m² | - |
| 1777575908 | 20° C | 59% | 1009.3 hPa | 0 mm | - | 266 W/m² | - |
| 1777575604 | 20.56° C | 59% | 1009.5 hPa | 0 mm | - | 269 W/m² | - |
| 1777575300 | 20.56° C | 58% | 1009.5 hPa | 0 mm | - | 269 W/m² | - |
| 1777574996 | 19.44° C | 60% | 1009.6 hPa | 0 mm | - | 824 W/m² | - |
| 1777574693 | 19.44° C | 62% | 1009.4 hPa | 0 mm | - | 501 W/m² | - |
| 1777574390 | 18.89° C | 62% | 1009.5 hPa | 0 mm | - | 300 W/m² | - |
| 1777574085 | 18.89° C | 62% | 1009.6 hPa | 0 mm | - | 401 W/m² | - |
| 1777573780 | 19.44° C | 61% | 1009.7 hPa | 0 mm | - | 405 W/m² | - |
| 1777573477 | 19.44° C | 61% | 1009.6 hPa | 0 mm | - | 410 W/m² | - |
| 1777573172 | 18.89° C | 63% | 1009.6 hPa | 0 mm | - | 723 W/m² | - |
| 1777572869 | 18.33° C | 63% | 1009.6 hPa | 0 mm | - | 311 W/m² | - |
| 1777572566 | 18.89° C | 62% | 1009.7 hPa | 0 mm | - | 537 W/m² | - |
| 1777572260 | 18.89° C | 64% | 1009.7 hPa | 0 mm | - | 322 W/m² | - |
| 1777571956 | 18.33° C | 64% | 1009.9 hPa | 0 mm | - | 348 W/m² | - |
| 1777571651 | 18.89° C | 63% | 1009.7 hPa | 0 mm | - | 286 W/m² | - |
| 1777571349 | 18.89° C | 64% | 1009.9 hPa | 0 mm | - | 269 W/m² | - |
| 1777571045 | 18.89° C | 64% | 1009.8 hPa | 0 mm | - | 322 W/m² | - |
| 1777570741 | 18.33° C | 65% | 1010 hPa | 0 mm | - | 240 W/m² | - |
| 1777570437 | 18.89° C | 63% | 1009.9 hPa | 0 mm | - | 267 W/m² | - |
| 1777570133 | 18.89° C | 64% | 1009.7 hPa | 0 mm | - | 253 W/m² | - |
| 1777569829 | 18.33° C | 63% | 1009.7 hPa | 0 mm | - | 480 W/m² | - |
| 1777569525 | 18.33° C | 64% | 1009.7 hPa | 0 mm | - | 410 W/m² | - |
* Rain latest hour (hover to see other rain measurements)
** Current wind speed in m/s (hover to see current wind gust speed)